TimeEDT,TemperatureF,Dew PointF,Humidity,Sea Level PressureIn,VisibilityMPH,Wind Direction,Wind SpeedMPH,Gust SpeedMPH,PrecipitationIn,Events,Conditions,WindDirDegrees,DateUTC
12:58 AM,64.2,53.8,69,30.25,10.0,East,3.5,-,N/A,,Clear,90,2013-03-30 04:58:00
1:58 AM,64.2,53.8,69,30.23,10.0,East,4.6,-,N/A,,Partly Cloudy,90,2013-03-30 05:58:00
2:58 AM,64.0,53.6,69,30.22,10.0,East,5.8,-,N/A,,Clear,80,2013-03-30 06:58:00
3:58 AM,63.5,52.9,68,30.22,10.0,East,4.6,-,N/A,,Clear,80,2013-03-30 07:58:00
4:58 AM,63.0,53.2,71,30.22,10.0,East,4.6,-,N/A,,Clear,80,2013-03-30 08:58:00
5:58 AM,59.9,52.3,76,30.22,10.0,East,2.3,-,N/A,,Clear,90,2013-03-30 09:58:00
6:58 AM,57.2,52.0,83,30.23,10.0,Calm,Calm,-,N/A,,Clear,0,2013-03-30 10:58:00
7:58 AM,59.4,53.2,80,30.25,10.0,NNE,1.2,-,N/A,,Clear,30,2013-03-30 11:58:00
8:58 AM,67.8,55.4,64,30.27,10.0,ENE,6.9,-,N/A,,Clear,70,2013-03-30 12:58:00
9:58 AM,71.8,53.4,52,30.27,10.0,East,12.7,-,N/A,,Partly Cloudy,90,2013-03-30 13:58:00
10:58 AM,72.9,52.2,48,30.27,10.0,East,12.7,-,N/A,,Clear,80,2013-03-30 14:58:00
11:58 AM,72.7,51.4,47,30.28,10.0,ENE,12.7,-,N/A,,Clear,70,2013-03-30 15:58:00
12:58 PM,73.4,52.2,47,30.26,10.0,ENE,10.4,19.6,N/A,,Clear,70,2013-03-30 16:58:00
1:58 PM,74.3,51.8,45,30.24,10.0,ENE,15.0,18.4,N/A,,Clear,60,2013-03-30 17:58:00
2:55 PM,73.4,53.6,50,30.20,10.0,East,12.7,18.4,N/A,,Clear,100,2013-03-30 18:55:00
2:58 PM,73.8,53.8,50,30.21,10.0,ENE,11.5,18.4,N/A,,Clear,70,2013-03-30 18:58:00
3:58 PM,74.1,54.7,51,30.20,10.0,ESE,12.7,-,N/A,,Partly Cloudy,110,2013-03-30 19:58:00
4:38 PM,73.4,53.6,50,30.18,10.0,ESE,12.7,19.6,N/A,,Clear,120,2013-03-30 20:38:00
4:58 PM,73.9,54.3,50,30.19,10.0,East,10.4,18.4,N/A,,Clear,90,2013-03-30 20:58:00
5:58 PM,72.3,53.4,51,30.18,10.0,East,12.7,-,N/A,,Clear,100,2013-03-30 21:58:00
6:58 PM,70.5,54.1,56,30.19,10.0,East,9.2,-,N/A,,Clear,90,2013-03-30 22:58:00
7:58 PM,66.7,55.0,66,30.19,10.0,East,3.5,-,N/A,,Clear,80,2013-03-30 23:58:00
8:58 PM,65.7,55.4,69,30.20,10.0,East,3.5,-,N/A,,Clear,100,2013-03-31 00:58:00
9:58 PM,64.2,55.6,73,30.21,10.0,East,4.6,-,N/A,,Clear,90,2013-03-31 01:58:00
10:58 PM,61.3,57.9,89,30.22,10.0,East,3.5,-,N/A,,Clear,100,2013-03-31 02:58:00
11:58 PM,64.6,57.6,78,30.22,10.0,East,3.5,-,N/A,,Clear,80,2013-03-31 03:58:00